GIA116 WILL-WIII

Flight info

Callsign GIA116
Flight time 0h 25m
Altitude 15000
Route CKG
Aircraft B738/M-SDE2E3FGHIRWXY/LB1

Departure

Time 2026-05-07 13:51
Airport Radin Inten II International Airport (WILL)

Arrival

Time 2026-05-07 14:16
Airport Soekarno-Hatta International Airport (WIII)
Time Latitude Longitude Altitude Speed Heading
2026-05-07 13:28 -5.24258 105.17676 273 ft 0 kts 230°
2026-05-07 13:41 -5.24247 105.17689 245 ft 4 kts 230°
2026-05-07 13:41 -5.24232 105.17707 282 ft 4 kts 235°
2026-05-07 13:42 -5.24224 105.17729 277 ft 4 kts 293°
2026-05-07 13:42 -5.24239 105.17747 275 ft 2 kts 319°
2026-05-07 13:42 -5.24243 105.17751 274 ft 0 kts 319°
2026-05-07 13:45 -5.24237 105.17746 275 ft 3 kts 319°
2026-05-07 13:46 -5.24206 105.17720 274 ft 7 kts 320°
2026-05-07 13:46 -5.24160 105.17714 272 ft 7 kts 31°
2026-05-07 13:46 -5.24123 105.17750 273 ft 7 kts 50°
2026-05-07 13:46 -5.24080 105.17765 273 ft 7 kts 340°
2026-05-07 13:47 -5.24042 105.17731 272 ft 7 kts 317°
2026-05-07 13:47 -5.24002 105.17695 275 ft 8 kts 318°
2026-05-07 13:47 -5.23957 105.17657 274 ft 9 kts 320°
2026-05-07 13:47 -5.23910 105.17617 273 ft 9 kts 320°
2026-05-07 13:48 -5.23860 105.17575 272 ft 9 kts 319°
2026-05-07 13:48 -5.23811 105.17537 274 ft 9 kts 339°
2026-05-07 13:48 -5.23771 105.17498 271 ft 9 kts 261°
2026-05-07 13:48 -5.23816 105.17496 271 ft 8 kts 117°
2026-05-07 13:49 -5.23828 105.17552 272 ft 8 kts 130°
2026-05-07 13:49 -5.23840 105.17562 272 ft 0 kts 144°
2026-05-07 13:50 -5.23883 105.17595 272 ft 18 kts 140°
2026-05-07 13:50 -5.24059 105.17744 274 ft 61 kts 140°
2026-05-07 13:50 -5.24561 105.18169 270 ft 125 kts 140°
2026-05-07 13:50 -5.25337 105.18826 389 ft 162 kts 139°
2026-05-07 13:51 -5.26227 105.19611 816 ft 178 kts 136°
2026-05-07 13:51 -5.27108 105.20511 1453 ft 180 kts 131°
2026-05-07 13:51 -5.27928 105.21456 2121 ft 183 kts 127°
2026-05-07 13:51 -5.28396 105.22689 2514 ft 201 kts 92°
2026-05-07 13:52 -5.28296 105.24135 2795 ft 219 kts 92°
2026-05-07 13:52 -5.28503 105.25712 3069 ft 235 kts 99°
2026-05-07 13:52 -5.28961 105.27370 3349 ft 256 kts 112°
2026-05-07 13:52 -5.29557 105.28857 3960 ft 260 kts 112°
2026-05-07 13:53 -5.30184 105.30441 4756 ft 258 kts 111°
2026-05-07 13:53 -5.30842 105.32131 5480 ft 261 kts 111°
2026-05-07 13:53 -5.31501 105.33845 6190 ft 265 kts 111°
2026-05-07 13:53 -5.32162 105.35583 6866 ft 269 kts 110°
2026-05-07 13:54 -5.32827 105.37345 7577 ft 272 kts 110°
2026-05-07 13:54 -5.33498 105.39132 8293 ft 275 kts 110°
2026-05-07 13:54 -5.34149 105.40873 8998 ft 279 kts 110°
2026-05-07 13:54 -5.34834 105.42710 9728 ft 283 kts 110°
2026-05-07 13:55 -5.35532 105.44585 10260 ft 295 kts 110°
2026-05-07 13:55 -5.36269 105.46566 10411 ft 318 kts 110°
2026-05-07 13:55 -5.37067 105.48716 10617 ft 337 kts 110°
2026-05-07 13:55 -5.37898 105.50952 11094 ft 345 kts 110°
2026-05-07 13:56 -5.38739 105.53215 11741 ft 348 kts 110°
2026-05-07 13:56 -5.39600 105.55495 12262 ft 350 kts 112°
2026-05-07 13:56 -5.40799 105.57593 12136 ft 343 kts 127°
2026-05-07 13:56 -5.42328 105.59381 12202 ft 329 kts 130°
2026-05-07 13:57 -5.43851 105.61112 12573 ft 333 kts 130°
2026-05-07 13:57 -5.45397 105.62871 12952 ft 339 kts 130°
2026-05-07 13:57 -5.46954 105.64653 13329 ft 341 kts 130°
2026-05-07 13:57 -5.48522 105.66456 13672 ft 346 kts 130°
2026-05-07 13:58 -5.50139 105.68322 13987 ft 359 kts 130°
2026-05-07 13:58 -5.51772 105.70211 14548 ft 358 kts 130°
2026-05-07 13:58 -5.53398 105.72094 14830 ft 357 kts 130°
2026-05-07 13:58 -5.55046 105.74007 14863 ft 367 kts 130°
2026-05-07 13:59 -5.56728 105.75959 14882 ft 371 kts 130°
2026-05-07 13:59 -5.58413 105.77916 14875 ft 369 kts 130°
2026-05-07 13:59 -5.60080 105.79852 14878 ft 368 kts 130°
2026-05-07 13:59 -5.61734 105.81772 14882 ft 367 kts 130°
2026-05-07 14:00 -5.63393 105.83700 14871 ft 360 kts 130°
2026-05-07 14:00 -5.65000 105.85566 14870 ft 346 kts 130°
2026-05-07 14:00 -5.66562 105.87381 14617 ft 343 kts 130°
2026-05-07 14:00 -5.68111 105.89181 14289 ft 340 kts 130°
2026-05-07 14:01 -5.69653 105.90974 13907 ft 337 kts 130°
2026-05-07 14:01 -5.71182 105.92751 13508 ft 336 kts 130°
2026-05-07 14:01 -5.72702 105.94518 13071 ft 334 kts 130°
2026-05-07 14:01 -5.74217 105.96280 12659 ft 332 kts 130°
2026-05-07 14:02 -5.75718 105.98025 12248 ft 329 kts 130°
2026-05-07 14:02 -5.77211 105.99762 11874 ft 326 kts 130°
2026-05-07 14:02 -5.78686 106.01477 11528 ft 322 kts 130°
2026-05-07 14:02 -5.80149 106.03178 11149 ft 320 kts 130°
2026-05-07 14:03 -5.81602 106.04869 10771 ft 319 kts 130°
2026-05-07 14:03 -5.83042 106.06543 10515 ft 313 kts 130°
2026-05-07 14:03 -5.83976 106.07630 10420 ft 307 kts 130°
2026-05-07 14:03 -5.85348 106.09226 10275 ft 298 kts 130°
2026-05-07 14:04 -5.86683 106.10779 10144 ft 289 kts 130°
2026-05-07 14:04 -5.87978 106.12286 10017 ft 281 kts 130°
2026-05-07 14:04 -5.89247 106.13763 9739 ft 280 kts 130°
2026-05-07 14:04 -5.90475 106.15193 9446 ft 278 kts 130°
2026-05-07 14:05 -5.91724 106.16647 9147 ft 277 kts 130°
2026-05-07 14:05 -5.92901 106.18017 8861 ft 275 kts 130°
2026-05-07 14:05 -5.94309 106.19318 8610 ft 273 kts 142°
2026-05-07 14:05 -5.95862 106.20397 8369 ft 270 kts 145°
2026-05-07 14:06 -5.97425 106.21432 8116 ft 269 kts 145°
2026-05-07 14:06 -5.98987 106.22472 7885 ft 269 kts 145°
2026-05-07 14:06 -6.00542 106.23519 7653 ft 269 kts 144°
2026-05-07 14:06 -6.02092 106.24575 7418 ft 269 kts 144°
2026-05-07 14:07 -6.03636 106.25635 7183 ft 269 kts 144°
2026-05-07 14:07 -6.05156 106.26685 6951 ft 268 kts 144°
2026-05-07 14:07 -6.06617 106.27698 6725 ft 267 kts 144°
2026-05-07 14:07 -6.08143 106.28758 6503 ft 266 kts 143°
2026-05-07 14:08 -6.09663 106.29816 6272 ft 265 kts 143°
2026-05-07 14:08 -6.11176 106.30870 6026 ft 264 kts 143°
2026-05-07 14:08 -6.12667 106.31909 5843 ft 258 kts 143°
2026-05-07 14:08 -6.14136 106.32934 5593 ft 256 kts 143°
2026-05-07 14:09 -6.15597 106.33953 5347 ft 254 kts 143°
2026-05-07 14:09 -6.17036 106.34957 5097 ft 250 kts 143°
2026-05-07 14:09 -6.18451 106.35944 4850 ft 244 kts 143°
2026-05-07 14:09 -6.19680 106.36801 4636 ft 239 kts 143°
2026-05-07 14:10 -6.21026 106.37740 4440 ft 231 kts 143°
2026-05-07 14:10 -6.22305 106.38632 4440 ft 217 kts 143°
2026-05-07 14:10 -6.23255 106.39703 4410 ft 199 kts 108°
2026-05-07 14:10 -6.23233 106.41037 4426 ft 193 kts 73°
2026-05-07 14:11 -6.22868 106.42352 4361 ft 199 kts 75°
2026-05-07 14:11 -6.22458 106.43672 4133 ft 203 kts 71°
2026-05-07 14:11 -6.21961 106.45017 3870 ft 200 kts 69°
2026-05-07 14:11 -6.21462 106.46291 3608 ft 196 kts 69°
2026-05-07 14:12 -6.20964 106.47541 3365 ft 193 kts 69°
2026-05-07 14:12 -6.20471 106.48776 3123 ft 188 kts 69°
2026-05-07 14:12 -6.19987 106.49988 2893 ft 183 kts 70°
2026-05-07 14:12 -6.19517 106.51166 2650 ft 180 kts 70°
2026-05-07 14:13 -6.19057 106.52319 2411 ft 176 kts 69°
2026-05-07 14:13 -6.18606 106.53448 2200 ft 171 kts 69°
2026-05-07 14:13 -6.18182 106.54511 1991 ft 164 kts 69°
2026-05-07 14:13 -6.17770 106.55542 1779 ft 154 kts 70°
2026-05-07 14:14 -6.17382 106.56516 1598 ft 151 kts 69°
2026-05-07 14:14 -6.16995 106.57487 1397 ft 149 kts 69°
2026-05-07 14:14 -6.16618 106.58434 1222 ft 150 kts 69°
2026-05-07 14:14 -6.16222 106.59422 1017 ft 151 kts 69°
2026-05-07 14:15 -6.15843 106.60417 844 ft 154 kts 71°
2026-05-07 14:15 -6.15442 106.61397 692 ft 149 kts 68°
2026-05-07 14:15 -6.15038 106.62311 582 ft 142 kts 70°
2026-05-07 14:15 -6.14689 106.63253 404 ft 144 kts 71°
2026-05-07 14:16 -6.14325 106.64183 148 ft 143 kts 69°
2026-05-07 14:16 -6.13976 106.65064 40 ft 129 kts 69°
2026-05-07 14:16 -6.13682 106.65797 38 ft 96 kts 68°
2026-05-07 14:16 -6.13480 106.66305 37 ft 44 kts 68°
2026-05-07 14:17 -6.13399 106.66502 42 ft 10 kts 65°
2026-05-07 14:17 -6.13363 106.66558 42 ft 9 kts 52°
2026-05-07 14:17 -6.13321 106.66608 42 ft 9 kts 50°
2026-05-07 14:17 -6.13278 106.66650 41 ft 8 kts 40°
2026-05-07 14:18 -6.13261 106.66664 41 ft 1 kts 40°
2026-05-07 14:18 -6.13256 106.66669 40 ft 2 kts 40°
2026-05-07 14:18 -6.13249 106.66674 40 ft 0 kts 40°
2026-05-07 14:18 -6.13245 106.66678 40 ft 1 kts 40°
2026-05-07 14:19 -6.13236 106.66685 40 ft 2 kts 40°
2026-05-07 14:19 -6.13223 106.66696 40 ft 3 kts 37°
2026-05-07 14:19 -6.13202 106.66708 39 ft 4 kts 25°
2026-05-07 14:19 -6.13170 106.66711 39 ft 5 kts 358°
2026-05-07 14:20 -6.13126 106.66723 38 ft 8 kts 37°
2026-05-07 14:20 -6.13095 106.66777 38 ft 10 kts 70°
2026-05-07 14:20 -6.13070 106.66849 38 ft 12 kts 70°
2026-05-07 14:20 -6.13039 106.66923 38 ft 12 kts 68°
2026-05-07 14:21 -6.13010 106.66997 38 ft 11 kts 69°
2026-05-07 14:21 -6.12981 106.67068 38 ft 11 kts 68°
2026-05-07 14:21 -6.12953 106.67137 38 ft 11 kts 69°
2026-05-07 14:21 -6.12933 106.67188 37 ft 12 kts 68°
2026-05-07 14:22 -6.12931 106.67193 38 ft 12 kts 68°